Location: Maccacari
(45.1333°N, 11.1333°E)
Time: 15:13:35
(UTC+00:00)

S-56A Canister/Altair - Pass Details

Date: 30 January 2021
Orbit: 631 x 2501 km, 38.9° (Epoch: 01 March)

Event Time Altitude Azimuth Distance (km) Brightness Sun altitude
Rises 23:14:31 0° 230° (SW) 3,902 - -62.1°
Reaches altitude 10° 23:17:58 10° 219° (SW) 2,662 - -62.2°
Maximum altitude 23:22:56 27° 163° (SSE) 1,452 - -62.2°
Drops below altitude 10° 23:26:56 10° 105° (ESE) 2,110 - -62.2°
Sets 23:29:21 0° 93° (E) 2,948 - -62.3°
